McCook, NE

6:09 AM CDT on March 28, 2017 (GMT -0500)
McCook Municipal

Weather History for KMCK - October, 2013

Change the Weather History Date:

Tuesday, October 29, 2013

  Actual Average Record
Temperature  
Mean Temperature 39 °F 46 °F  
Max Temperature 40 °F 61 °F 87 °F (2003)
Min Temperature 37 °F 32 °F -1 °F (1913)
Degree Days  
Heating Degree Days 27    
Moisture  
Dew Point 37 °F    
Average Humidity 94    
Maximum Humidity 100    
Minimum Humidity 89    
Precipitation  
Precipitation 0.03 in 0.05 in 0.71 in (2000)
Month to date precipitation 0.61 1.70  
Year to date precipitation 12.13 20.85  
Sea Level Pressure  
Sea Level Pressure 30.04 in    
Wind  
Wind Speed 11 mph (North)    
Max Wind Speed 14 mph    
Max Gust Speed -    
Visibility 4 miles    
Events Rain    
T = Trace of Precipitation, MM = Missing Value Source: NWS Daily Summary

Daily Weather History Graph

Daily Weather History Graph

Search for Another Location

Airport or City:

Trip Planner

Search our weather history database for the weather conditions in past years. The results will help you decide how hot, cold, wet, or windy it might be!

Date:

Astronomy

Oct. 29, 2013 Rise Set
Actual Time 8:08 AM CDT 6:42 PM CDT
Civil Twilight 7:40 AM CDT 7:10 PM CDT
Nautical Twilight 7:08 AM CDT 7:42 PM CDT
Astronomical Twilight 6:37 AM CDT 8:14 PM CDT
Moon 3:00 AM CDT (10/29) 3:57 PM CDT (10/29)
Length of Visible Light 11h 30m
Length of Day
10h 34m
Waning Crescent, 25% of the Moon is Illuminated
Oct 29
Waning Crescent
Nov 3
New
Nov 9
First Quarter
Nov 17
Full
Nov 25
Last Quarter

Hourly Weather History & Observations

Time (CDT) Temp. Windchill Dew Point Humidity Pressure Visibility Wind Dir Wind Speed Gust Speed Precip Events Conditions
12:00 AM 39.2 °F 31.6 °F 37.4 °F 93% 30.05 in 2.0 mi NE 12.7 mph - N/A   Overcast
12:25 AM 39.2 °F 32.0 °F 37.4 °F 93% 30.06 in 1.8 mi NNE 11.5 mph - N/A   Overcast
12:53 AM 39.0 °F 32.8 °F 37.9 °F 96% 30.10 in 1.5 mi NNE 9.2 mph - 0.00 in Rain Light Rain
1:53 AM 39.0 °F 31.8 °F 37.9 °F 96% 30.08 in 1.2 mi North 11.5 mph - 0.00 in Rain Light Rain
2:53 AM 39.0 °F 31.4 °F 37.9 °F 96% 30.06 in 1.8 mi North 12.7 mph - 0.01 in   Overcast
3:53 AM 39.0 °F 31.4 °F 37.9 °F 96% 30.06 in 2.0 mi North 12.7 mph - 0.01 in Rain Light Rain
4:08 AM 39.2 °F 32.0 °F 37.4 °F 93% 30.04 in 1.8 mi North 11.5 mph - 0.00 in   Overcast
4:53 AM 39.0 °F 32.3 °F 37.9 °F 96% 30.05 in 1.8 mi North 10.4 mph - 0.00 in   Overcast
5:24 AM 39.2 °F 32.5 °F 37.4 °F 93% 30.02 in 2.0 mi North 10.4 mph - 0.00 in   Overcast
5:53 AM 39.0 °F 31.8 °F 37.0 °F 93% 30.05 in 1.8 mi North 11.5 mph - 0.00 in   Overcast
6:24 AM 39.2 °F 32.0 °F 37.4 °F 93% 30.02 in 2.0 mi North 11.5 mph - 0.01 in Rain Light Rain
6:39 AM 39.2 °F 31.6 °F 37.4 °F 93% 30.03 in 1.8 mi North 12.7 mph - 0.01 in   Overcast
6:53 AM 39.0 °F 31.4 °F 37.0 °F 93% 30.05 in 1.5 mi North 12.7 mph - 0.01 in   Overcast
7:53 AM 37.9 °F 30.0 °F 37.0 °F 97% 30.04 in 1.8 mi North 12.7 mph - N/A   Overcast
8:00 AM 37.4 °F 28.9 °F 37.4 °F 100% 30.01 in 2.0 mi North 13.8 mph - N/A   Overcast
8:24 AM 37.4 °F 29.3 °F 37.4 °F 100% 30.01 in 1.8 mi North 12.7 mph - N/A   Overcast
8:53 AM 37.9 °F 30.9 °F 37.0 °F 97% 30.06 in 1.5 mi North 10.4 mph - 0.00 in   Overcast
9:30 AM 37.4 °F 30.3 °F 37.4 °F 100% 30.03 in 2.5 mi North 10.4 mph - 0.00 in   Overcast
9:50 AM 37.4 °F 30.8 °F 35.6 °F 93% 30.04 in 1.2 mi North 9.2 mph - 0.00 in   Overcast
9:53 AM 37.0 °F 29.8 °F 36.0 °F 96% 30.08 in 1.2 mi North 10.4 mph - 0.00 in   Overcast
10:53 AM 37.9 °F 31.5 °F 37.0 °F 97% 30.09 in 1.8 mi North 9.2 mph - N/A   Overcast
11:22 AM 37.4 °F 30.3 °F 35.6 °F 93% 30.04 in 2.5 mi North 10.4 mph - N/A   Overcast
11:35 AM 37.4 °F 29.8 °F 35.6 °F 93% 30.05 in 3.0 mi North 11.5 mph - N/A   Overcast
11:45 AM 37.4 °F 28.9 °F 35.6 °F 93% 30.05 in 1.8 mi North 13.8 mph - N/A   Overcast
11:53 AM 37.0 °F 28.5 °F 36.0 °F 96% 30.10 in 1.5 mi NNW 13.8 mph - N/A   Overcast
12:46 PM 37.4 °F 29.3 °F 35.6 °F 93% 30.04 in 2.0 mi North 12.7 mph - 0.00 in   Overcast
12:53 PM 37.9 °F 30.0 °F 36.0 °F 93% 30.07 in 2.5 mi North 12.7 mph - 0.00 in   Overcast
1:12 PM 37.4 °F 29.3 °F 35.6 °F 93% 30.02 in 7.0 mi North 12.7 mph - N/A   Overcast
1:53 PM 39.0 °F 32.3 °F 37.0 °F 93% 30.04 in 4.0 mi NNW 10.4 mph - N/A   Overcast
2:03 PM 37.4 °F 29.8 °F 37.4 °F 100% 29.99 in 2.0 mi North 11.5 mph - N/A   Overcast
2:18 PM 39.2 °F 32.0 °F 37.4 °F 93% 29.99 in 4.0 mi NNE 11.5 mph - N/A   Overcast
2:53 PM 39.0 °F 33.4 °F 37.0 °F 93% 30.02 in 8.0 mi NNE 8.1 mph - N/A   Overcast
3:53 PM 39.9 °F 34.5 °F 37.0 °F 89% 30.00 in 10.0 mi NNE 8.1 mph - N/A   Overcast
4:53 PM 39.9 °F 35.8 °F 37.9 °F 93% 30.01 in 5.0 mi NNW 5.8 mph - N/A   Overcast
5:53 PM 39.9 °F 35.1 °F 37.9 °F 93% 30.02 in 9.0 mi North 6.9 mph - N/A   Overcast
6:53 PM 39.9 °F 35.1 °F 37.9 °F 93% 30.03 in 10.0 mi North 6.9 mph - N/A   Overcast
7:53 PM 39.9 °F 35.1 °F 37.0 °F 89% 30.06 in 10.0 mi North 6.9 mph - N/A   Overcast
8:53 PM 39.0 °F 32.8 °F 37.0 °F 93% 30.06 in 10.0 mi North 9.2 mph - N/A   Overcast
9:53 PM 39.9 °F 36.7 °F 37.0 °F 89% 30.07 in 10.0 mi North 4.6 mph - N/A   Overcast
10:53 PM 39.9 °F 35.8 °F 37.0 °F 89% 30.07 in 10.0 mi North 5.8 mph - N/A   Overcast
11:53 PM 39.0 °F - 37.0 °F 93% 30.08 in 10.0 mi Calm Calm - N/A   Overcast